TimeMDT,TemperatureF,Dew PointF,Humidity,Sea Level PressureIn,VisibilityMPH,Wind Direction,Wind SpeedMPH,Gust SpeedMPH,PrecipitationIn,Events,Conditions,WindDirDegrees,DateUTC
12:56 AM,23.0,15.1,72,30.23,10.0,SE,10.4,-,N/A,,Clear,130,2013-04-10 06:56:00
1:56 AM,21.9,15.1,75,30.21,10.0,SE,9.2,-,N/A,,Unknown,130,2013-04-10 07:56:00
2:56 AM,21.9,15.1,75,30.17,10.0,SE,10.4,-,N/A,,Clear,130,2013-04-10 08:56:00
3:56 AM,23.0,16.0,74,30.13,10.0,SE,8.1,-,N/A,,Clear,140,2013-04-10 09:56:00
4:56 AM,21.0,16.0,81,30.12,10.0,ESE,8.1,-,N/A,,Clear,120,2013-04-10 10:56:00
5:56 AM,19.9,15.1,81,30.09,10.0,ESE,6.9,-,N/A,,Clear,110,2013-04-10 11:56:00
6:56 AM,18.0,14.0,84,30.09,10.0,SE,4.6,-,N/A,,Clear,130,2013-04-10 12:56:00
7:56 AM,19.9,16.0,85,30.09,10.0,SE,4.6,-,N/A,,Clear,140,2013-04-10 13:56:00
8:56 AM,24.8,19.4,80,29.96,10.0,SSE,10.4,-,N/A,,Clear,150,2013-04-10 14:56:00
9:56 AM,28.9,21.9,75,30.04,10.0,SE,12.7,-,N/A,,Clear,140,2013-04-10 15:56:00
10:56 AM,36.0,25.0,64,29.99,10.0,SSE,12.7,-,N/A,,Clear,150,2013-04-10 16:56:00
11:56 AM,45.0,28.9,53,29.92,10.0,SSE,10.4,-,N/A,,Clear,160,2013-04-10 17:56:00
12:29 PM,48.2,30.2,50,29.82,10.0,WSW,24.2,32.2,N/A,,Clear,240,2013-04-10 18:29:00
12:56 PM,53.1,32.0,45,29.84,10.0,WSW,32.2,36.8,N/A,,Mostly Cloudy,250,2013-04-10 18:56:00
1:56 PM,53.1,30.9,43,29.81,10.0,WSW,33.4,41.4,N/A,,Partly Cloudy,250,2013-04-10 19:56:00
2:56 PM,52.0,30.9,45,29.81,10.0,WSW,28.8,36.8,N/A,,Scattered Clouds,240,2013-04-10 20:56:00
3:56 PM,50.0,32.0,50,29.78,10.0,WSW,26.5,36.8,N/A,,Overcast,250,2013-04-10 21:56:00
4:56 PM,48.0,32.0,54,29.75,10.0,WSW,17.3,-,N/A,,Overcast,240,2013-04-10 22:56:00
5:56 PM,48.9,33.1,54,29.73,10.0,SW,17.3,-,N/A,,Partly Cloudy,230,2013-04-10 23:56:00
6:56 PM,51.1,33.1,50,29.72,10.0,WSW,21.9,26.5,N/A,,Clear,240,2013-04-11 00:56:00
7:56 PM,46.9,32.0,56,29.72,10.0,WSW,27.6,36.8,N/A,,Partly Cloudy,250,2013-04-11 01:56:00
8:56 PM,44.1,34.0,68,29.71,10.0,West,19.6,-,N/A,,Clear,260,2013-04-11 02:56:00
9:56 PM,41.0,33.1,73,29.72,10.0,West,17.3,-,N/A,,Clear,260,2013-04-11 03:56:00
10:56 PM,41.0,32.0,70,29.71,10.0,West,19.6,-,N/A,,Clear,270,2013-04-11 04:56:00
11:56 PM,39.0,30.0,70,29.72,10.0,WNW,15.0,-,N/A,,Clear,290,2013-04-11 05:56:00